Waarnemingen

Advertentie
Mijn weer
Culdrose, Groot Brittannië (3809): temperatuur & dauwpunt: 21.01.2021 14:00:00 - 27.01.2021 14:00:00 (GMT)Culdrose, Groot Brittannië (3809): windsnelheid & windstoten: 21.01.2021 14:00:00 - 27.01.2021 14:00:00 (GMT)Culdrose, Groot Brittannië (3809): windrichting: 21.01.2021 14:00:00 - 27.01.2021 14:00:00 (GMT)Culdrose, Groot Brittannië (3809): luchtdruk: 21.01.2021 14:00:00 - 27.01.2021 14:00:00 (GMT)Culdrose, Groot Brittannië (3809): zicht: 21.01.2021 14:00:00 - 27.01.2021 14:00:00 (GMT)Culdrose, Groot Brittannië (3809): neerslag: 21.01.2021 14:00:00 - 27.01.2021 14:00:00 (GMT)
Datum & Tijd tt [°C] td [°C] ff [km/u] ff [kn] fx [km/u] fx [kn] dd ppp [hPa] vv [km] rr [mm]
27.01.2021 14:00:00 10,4 10,4 16 9 - - ZZW 1012,1 0,2 1,6
27.01.2021 13:00:00 10,2 10,2 22 12 - - ZW 1013,0 0,2 1,4
27.01.2021 12:00:00 10,1 10,1 16 9 - - ZW 1013,4 0,2 1,2
27.01.2021 11:00:00 9,8 9,8 11 6 - - ZW 1014,0 0,2 0,4
27.01.2021 10:00:00 9,6 9,6 15 8 - - ZW 1013,6 0,1 0,0
27.01.2021 09:00:00 9,3 9,3 15 8 - - WZW 1013,4 0,2 0,0
27.01.2021 08:00:00 9,5 9,5 16 9 - - ZW 1013,4 0,1 0,0
27.01.2021 07:00:00 9,5 9,5 11 6 - - WZW 1013,4 0,3 0,0
27.01.2021 06:00:00 9,3 9,3 15 8 - - W 1013,5 0,2 0,2
27.01.2021 05:00:00 9,3 9,3 18 10 - - W 1013,5 0,5 0,0
27.01.2021 04:00:00 9,0 9,0 16 9 - - W 1013,4 0,2 0,0
27.01.2021 03:00:00 9,0 9,0 16 9 - - WZW 1013,6 0,2 0,0
27.01.2021 02:00:00 9,0 9,0 18 10 - - WZW 1013,7 0,2 0,0
27.01.2021 01:00:00 9,0 9,0 21 11 - - WZW 1013,4 0,2 0,0
27.01.2021 00:00:00 8,9 8,9 16 9 - - WZW 1013,5 0,1 0,0
26.01.2021 23:00:00 8,8 8,8 15 8 - - ZW 1013,4 2,5 0,0
26.01.2021 22:00:00 8,8 8,8 15 8 - - NW 1013,1 25 0,0
26.01.2021 21:00:00 9,1 9,1 16 9 - - W 1013,1 9 0,0
26.01.2021 20:00:00 9,2 9,2 22 12 - - W 1012,5 1,3 0,0
26.01.2021 19:00:00 10,0 10,0 13 7 - - W 1011,4 0,3 0,0
26.01.2021 18:00:00 10,0 10,0 11 6 - - W 1011,2 0,4 0,0
26.01.2021 17:00:00 10,0 10,0 13 7 - - W 1011,1 0,3 1,0
26.01.2021 16:00:00 10,0 10,0 13 7 - - WZW 1010,5 0,1 0,0
26.01.2021 15:00:00 10,1 10,1 24 13 50 27 ZZW 1010,4 0,2 0,2
26.01.2021 14:00:00 9,8 9,8 26 14 61 33 ZZW 1010,9 0,3 0,0
26.01.2021 13:00:00 9,3 9,3 29 16 59 32 Z 1011,1 0,5 0,0
26.01.2021 12:00:00 8,9 8,7 26 14 52 28 Z 1012,2 1,5 0,4
26.01.2021 11:00:00 8,7 8,2 26 14 48 26 Z 1012,9 2,0 0,2
26.01.2021 10:00:00 8,2 7,7 24 13 50 27 Z 1013,4 5 0,2
26.01.2021 09:00:00 7,4 6,9 26 14 65 35 Z 1013,4 5 1,8
26.01.2021 08:00:00 7,1 6,5 35 19 61 33 ZZW 1013,1 4,0 5,2
26.01.2021 07:00:00 7,0 6,1 18 10 - - ZZW 1015,3 5 3,6
26.01.2021 06:00:00 7,6 5,2 21 11 - - Z 1015,2 14 0,4
26.01.2021 05:00:00 7,8 4,4 28 15 - - ZZW 1015,3 26 0,0
26.01.2021 04:00:00 7,7 3,7 26 14 - - Z 1015,6 45 0,0
26.01.2021 03:00:00 7,6 2,2 24 13 - - ZZW 1016,3 35 0,0
26.01.2021 02:00:00 7,2 1,9 22 12 - - ZZW 1016,7 10 0,0
26.01.2021 01:00:00 6,5 1,3 21 11 - - ZZW 1016,8 26 0,0
26.01.2021 00:00:00 6,7 1,2 26 14 - - ZZW 1017,2 40 0,0
25.01.2021 23:00:00 6,5 0,8 16 9 - - ZZW 1017,4 25 0,0
25.01.2021 22:00:00 6,2 0,7 13 7 - - ZZW 1017,7 25 0,0
25.01.2021 21:00:00 5,8 -0,5 15 8 - - ZZW 1017,3 10 0,0
25.01.2021 20:00:00 4,3 -0,1 9 5 - - ZW 1017,2 10 0,0
25.01.2021 19:00:00 4,2 -0,2 13 7 - - ZW 1017,3 25 0,0
25.01.2021 18:00:00 3,7 -1,3 9 5 - - ZW 1016,8 20 0,0
25.01.2021 17:00:00 4,5 -1,9 9 5 - - ZW 1015,8 10 0,0
25.01.2021 16:00:00 6,3 -1,6 11 6 - - ZW 1015,5 20 0,0
25.01.2021 15:00:00 5,7 -2,6 11 6 - - ZW 1015,4 10 0,0
25.01.2021 14:00:00 6,9 -2,4 11 6 - - ZW 1015,0 10 0,0
25.01.2021 13:00:00 6,9 -1,9 9 5 - - ZW 1014,7 20 0,0
25.01.2021 12:00:00 6,2 -1,3 8 4 - - ZW 1014,4 10 0,0
25.01.2021 11:00:00 5,2 -1,8 5 3 - - ZW 1013,8 10 0,0
25.01.2021 10:00:00 1,3 -1,2 2 1 - - O 1013,1 10 0,0
25.01.2021 09:00:00 -1,4 -3,3 8 4 - - NO 1012,4 20 0,0
25.01.2021 08:00:00 -0,8 -3,1 9 5 - - NNO 1011,5 10 0,0
25.01.2021 07:00:00 0,1 -2,6 9 5 - - NNO 1010,9 22 0,0
25.01.2021 06:00:00 -1,1 -3,0 4 2 - - ONO 1010,1 28 0,0
25.01.2021 05:00:00 -0,3 -2,1 11 6 - - N 1009,3 19 0,0
25.01.2021 04:00:00 -0,2 -2,1 11 6 - - NO 1008,5 29 0,0
25.01.2021 03:00:00 0,6 -1,7 15 8 - - ONO 1007,7 20 0,0
25.01.2021 02:00:00 1,6 -1,2 8 4 - - OZO 1006,9 22 0,0
25.01.2021 01:00:00 1,9 -0,9 18 10 - - N 1006,3 30 0,0
25.01.2021 00:00:00 2,5 0,2 26 14 - - N 1004,9 10 0,8
24.01.2021 23:00:00 1,8 0,6 34 18 50 27 N 1004,1 2,5 0,6
24.01.2021 22:00:00 4,2 -1,3 31 17 46 25 NW 1003,0 24 0,0
24.01.2021 21:00:00 4,0 -0,2 34 18 50 27 NNW 1002,3 17 0,0
24.01.2021 20:00:00 4,4 -0,4 31 17 50 27 NW 1001,7 8 0,0
24.01.2021 19:00:00 4,3 -1,2 35 19 59 32 NW 1001,2 30 0,0
24.01.2021 18:00:00 4,4 -0,3 34 18 52 28 NW 1000,5 19 0,4
24.01.2021 17:00:00 3,5 0,5 35 19 63 34 NW 999,9 10 0,0
24.01.2021 16:00:00 5,1 0,1 35 19 63 34 WNW 999,3 30 0,0
24.01.2021 15:00:00 5,8 0,3 48 26 65 35 WNW 998,4 26 0,0
24.01.2021 14:00:00 5,1 1,3 41 22 68 37 WNW 998,3 15 0,2
24.01.2021 13:00:00 5,1 2,1 29 16 57 31 W 998,1 15 0,2
24.01.2021 12:00:00 6,5 1,9 34 18 54 29 WNW 997,9 20 0,0
24.01.2021 11:00:00 5,2 2,1 29 16 - - W 997,8 23 0,2
24.01.2021 10:00:00 4,1 2,5 28 15 74 40 WNW 997,8 25 0,8
24.01.2021 09:00:00 3,7 2,1 22 12 80 43 W 997,2 13 0,8
24.01.2021 08:00:00 4,5 1,0 28 15 - - W 997,3 30 0,2
24.01.2021 07:00:00 4,1 -0,6 29 16 67 36 W 997,0 35 0,2
24.01.2021 06:00:00 4,2 2,0 35 19 57 31 W 997,2 8 0,0
24.01.2021 05:00:00 3,2 1,6 22 12 48 26 WNW 996,9 19 0,4
24.01.2021 04:00:00 4,4 1,7 24 13 54 29 W 996,8 26 0,2
24.01.2021 03:00:00 4,2 2,7 16 9 - - W 996,9 22 0,4
24.01.2021 02:00:00 4,0 3,1 22 12 - - ZW 997,6 23 1,2
24.01.2021 01:00:00 4,2 3,1 26 14 48 26 ZW 998,0 9 1,6
24.01.2021 00:00:00 6,3 1,5 21 11 - - ZZW 998,1 30 0,0
23.01.2021 23:00:00 4,4 0,3 16 9 - - Z 998,8 26 0,0
23.01.2021 22:00:00 2,2 0,4 15 8 - - ZZO 999,4 21 0,0
23.01.2021 21:00:00 -1,0 -2,6 13 7 - - ZO 999,9 10 0,0
23.01.2021 20:00:00 0,3 -2,6 9 5 - - ZO 999,9 18 0,0
23.01.2021 19:00:00 -1,0 -3,6 2 1 - - O 999,7 28 0,0
23.01.2021 18:00:00 2,8 -1,5 4 2 - - W 999,6 30 0,0
23.01.2021 17:00:00 3,9 -1,3 5 3 - - NW 999,2 20 0,0
23.01.2021 16:00:00 5,1 -1,6 11 6 - - NW 999,1 26 0,0
23.01.2021 15:00:00 5,8 -1,2 11 6 - - NW 999,1 40 0,0
23.01.2021 14:00:00 5,9 -0,7 16 9 - - NW 999,2 10 0,0
23.01.2021 13:00:00 6,7 0,4 15 8 - - N 998,9 30 0,0
23.01.2021 12:00:00 5,7 0,1 18 10 - - NNW 999,1 20 0,0
23.01.2021 11:00:00 5,6 0,3 21 11 - - NW 998,9 45 0,0
23.01.2021 10:00:00 5,0 0,4 18 10 - - N 998,0 35 0,0
23.01.2021 09:00:00 3,6 0,2 11 6 - - NW 997,7 20 0,0
23.01.2021 08:00:00 3,9 0,3 21 11 - - N 996,7 30 0,0
23.01.2021 07:00:00 3,7 0,6 18 10 - - N 995,2 24 0,0
23.01.2021 06:00:00 3,8 1,8 21 11 - - N 994,1 19 0,0
23.01.2021 05:00:00 3,6 1,7 22 12 - - NNO 993,5 10 0,0
23.01.2021 04:00:00 3,6 2,1 22 12 - - NO 993,0 28 0,0
23.01.2021 03:00:00 4,1 3,2 21 11 - - NO 992,7 30 0,2
23.01.2021 02:00:00 3,6 2,4 16 9 - - OZO 992,8 26 0,0
23.01.2021 01:00:00 2,8 2,1 21 11 - - ONO 993,5 40 0,0
23.01.2021 00:00:00 2,9 2,1 13 7 - - O 994,4 35 0,0
22.01.2021 23:00:00 2,9 1,5 5 3 - - O 995,2 35 0,0
22.01.2021 22:00:00 4,9 2,2 5 3 - - WZW 995,9 35 0,0
22.01.2021 21:00:00 4,9 2,4 13 7 - - WZW 996,5 10 0,0
22.01.2021 20:00:00 5,1 2,3 22 12 - - W 997,3 22 0,0
22.01.2021 19:00:00 4,9 2,4 18 10 - - WNW 997,2 9 0,0
22.01.2021 18:00:00 5,7 2,1 29 16 - - W 997,0 19 0,0
22.01.2021 17:00:00 5,8 2,5 22 12 54 29 W 996,5 30 0,0
22.01.2021 16:00:00 6,3 1,9 24 13 - - W 996,1 15 0,0
22.01.2021 15:00:00 6,9 2,9 28 15 54 29 WNW 995,7 25 0,0
22.01.2021 14:00:00 7,5 3,4 42 23 54 29 WNW 995,2 30 0,2
22.01.2021 13:00:00 6,7 2,5 37 20 59 32 W 995,2 30 0,2
22.01.2021 12:00:00 8,1 3,9 22 12 - - W 995,2 20 0,0
22.01.2021 11:00:00 7,4 3,1 21 11 - - W 995,2 18 0,0
22.01.2021 10:00:00 6,7 3,7 16 9 - - W 994,9 10 0,0
22.01.2021 09:00:00 5,7 3,4 18 10 - - W 994,3 18 0,0
22.01.2021 08:00:00 4,8 2,7 16 9 - - W 993,9 18 0,0
22.01.2021 07:00:00 4,0 2,2 13 7 - - W 993,2 25 0,0
22.01.2021 06:00:00 4,1 3,0 16 9 - - W 992,8 27 0,0
22.01.2021 05:00:00 5,0 3,2 13 7 - - W 992,5 18 0,0
22.01.2021 04:00:00 4,6 3,2 16 9 - - W 992,0 21 0,0
22.01.2021 03:00:00 3,2 1,7 9 5 - - W 991,8 75 0,0
22.01.2021 02:00:00 4,3 1,6 15 8 - - W 991,3 30 0,0
22.01.2021 01:00:00 3,6 0,9 13 7 - - WNW 991,1 45 0,0
22.01.2021 00:00:00 3,8 1,8 11 6 - - NW 991,0 10 0,0
21.01.2021 23:00:00 4,1 1,5 13 7 - - W 990,5 25 0,0
21.01.2021 22:00:00 4,2 1,4 15 8 - - W 990,0 10 0,0
21.01.2021 21:00:00 4,1 0,8 16 9 - - WNW 989,5 10 0,0
21.01.2021 20:00:00 3,8 0,8 15 8 - - WNW 989,0 10 0,0
21.01.2021 19:00:00 4,7 1,5 15 8 - - WNW 988,5 10 0,0
21.01.2021 18:00:00 5,2 1,7 16 9 - - WNW 987,8 25 0,0
21.01.2021 17:00:00 6,6 2,7 18 10 - - WNW 986,8 10 0,0
21.01.2021 16:00:00 7,2 2,9 13 7 - - WNW 986,0 10 0,0
21.01.2021 15:00:00 7,7 3,9 13 7 - - NW 985,6 25 0,0
21.01.2021 14:00:00 8,2 3,7 9 5 - - W 985,7 10 0,0

tt = temperatuur
td = dauwpunt
ff = windsnelheid
fx = windstoten
dd = windrichting
ppp = luchtdruk
vv = zicht
rr = neerslag

Weerstations in de omgeving